When you browse on this site, cookies collect data to enhance your experience and personalize the content and advertising you see.
Visit our Privacy Policy to learn more. By continuing to use the site, you agree to this use of cookies and data.
  • In Österreich
  • Länderverzeichnis
  • Für 7 Tage
  • Wassertemperatur
  • Wetterkarte
  • News
  • Widgets
  • user-avatar
    Anmelden

    Stündliche Wetter Georgetown

    Heute, 26 Januar, Sonntag

    Zeit Temperatur Niederschläge Wind Luftdruck Luftfeuchtigkeit
    00:00 +26°C° 0 mm 3 m/S 759 mmHg 90%
    01:00 +26°C° 0 mm 3 m/S 759 mmHg 92%
    02:00 +25°C° 0 mm 3 m/S 759 mmHg 93%
    03:00 +25°C° 0 mm 2 m/S 759 mmHg 93%
    04:00 +25°C° 0 mm 2 m/S 759 mmHg 94%
    05:00 +25°C° 0 mm 1 m/S 759 mmHg 94%
    06:00 +26°C° 0.1 mm 1 m/S 759 mmHg 89%
    07:00 +27°C° 0.1 mm 1 m/S 760 mmHg 84%
    08:00 +29°C° 0.1 mm 1 m/S 760 mmHg 79%
    09:00 +30°C° 0.1 mm 2 m/S 760 mmHg 73%
    10:00 +31°C° 0.1 mm 2 m/S 760 mmHg 67%
    11:00 +32°C° 0.1 mm 2 m/S 760 mmHg 62%
    12:00 +33°C° 0 mm 3 m/S 759 mmHg 61%
    13:00 +33°C° 0 mm 3 m/S 759 mmHg 59%
    14:00 +34°C° 0 mm 3 m/S 758 mmHg 58%
    15:00 +33°C° 0 mm 3 m/S 758 mmHg 63%
    16:00 +31°C° 0 mm 3 m/S 757 mmHg 67%
    17:00 +30°C° 0 mm 3 m/S 757 mmHg 71%
    18:00 +29°C° 0 mm 3 m/S 758 mmHg 77%
    19:00 +28°C° 0 mm 3 m/S 758 mmHg 83%
    20:00 +27°C° 0 mm 3 m/S 759 mmHg 89%
    21:00 +27°C° 0.1 mm 3 m/S 759 mmHg 89%
    22:00 +27°C° 0.1 mm 3 m/S 759 mmHg 90%
    23:00 +27°C° 0.1 mm 4 m/S 760 mmHg 90%

    Morgen, 27 Januar, Montag

    Zeit Temperatur Niederschläge Wind Luftdruck Luftfeuchtigkeit
    00:00 +26°C° 0.2 mm 4 m/S 759 mmHg 90%
    01:00 +26°C° 0.2 mm 4 m/S 759 mmHg 90%
    02:00 +26°C° 0.2 mm 4 m/S 758 mmHg 90%
    03:00 +26°C° 0.1 mm 3 m/S 758 mmHg 90%
    04:00 +26°C° 0.1 mm 3 m/S 758 mmHg 90%
    05:00 +26°C° 0.1 mm 3 m/S 758 mmHg 90%
    06:00 +27°C° 0.3 mm 3 m/S 759 mmHg 86%
    07:00 +28°C° 0.3 mm 3 m/S 759 mmHg 82%
    08:00 +29°C° 0.3 mm 3 m/S 760 mmHg 78%
    09:00 +30°C° 0.3 mm 3 m/S 760 mmHg 74%
    10:00 +32°C° 0.3 mm 4 m/S 760 mmHg 69%
    11:00 +33°C° 0.3 mm 4 m/S 760 mmHg 64%
    12:00 +33°C° 0.2 mm 4 m/S 760 mmHg 63%
    13:00 +33°C° 0.2 mm 4 m/S 759 mmHg 62%
    14:00 +34°C° 0.2 mm 5 m/S 758 mmHg 60%
    15:00 +33°C° 0 mm 4 m/S 758 mmHg 64%
    16:00 +32°C° 0 mm 4 m/S 757 mmHg 67%
    17:00 +30°C° 0 mm 4 m/S 757 mmHg 71%
    18:00 +29°C° 0 mm 4 m/S 758 mmHg 76%
    19:00 +28°C° 0 mm 4 m/S 758 mmHg 82%
    20:00 +27°C° 0 mm 4 m/S 759 mmHg 88%
    21:00 +27°C° 0 mm 4 m/S 759 mmHg 88%
    22:00 +27°C° 0 mm 4 m/S 759 mmHg 88%
    23:00 +27°C° 0 mm 4 m/S 760 mmHg 89%

    übermorgen, 28 Januar, Dienstag

    Zeit Temperatur Niederschläge Wind Luftdruck Luftfeuchtigkeit
    00:00 +27°C° 0.1 mm 4 m/S 759 mmHg 90%
    01:00 +27°C° 0.1 mm 4 m/S 759 mmHg 90%
    02:00 +27°C° 0.1 mm 4 m/S 758 mmHg 91%
    03:00 +27°C° 0.1 mm 4 m/S 758 mmHg 90%
    04:00 +27°C° 0.1 mm 4 m/S 758 mmHg 89%
    05:00 +27°C° 0.1 mm 4 m/S 758 mmHg 88%
    06:00 +27°C° 0.1 mm 4 m/S 759 mmHg 86%
    07:00 +28°C° 0.1 mm 4 m/S 759 mmHg 84%
    08:00 +28°C° 0.1 mm 3 m/S 760 mmHg 82%
    09:00 +29°C° 0.1 mm 4 m/S 760 mmHg 76%
    10:00 +30°C° 0.1 mm 4 m/S 760 mmHg 69%
    11:00 +32°C° 0.1 mm 4 m/S 760 mmHg 63%
    12:00 +33°C° 0 mm 4 m/S 759 mmHg 61%
    13:00 +33°C° 0 mm 4 m/S 758 mmHg 59%
    14:00 +33°C° 0 mm 4 m/S 758 mmHg 57%
    15:00 +32°C° 0 mm 4 m/S 757 mmHg 61%
    16:00 +32°C° 0 mm 4 m/S 757 mmHg 64%
    17:00 +30°C° 0 mm 4 m/S 757 mmHg 68%
    18:00 +29°C° 0 mm 4 m/S 757 mmHg 74%
    19:00 +28°C° 0 mm 3 m/S 758 mmHg 79%
    20:00 +27°C° 0 mm 3 m/S 758 mmHg 85%
    21:00 +27°C° 0 mm 4 m/S 758 mmHg 84%
    22:00 +27°C° 0 mm 4 m/S 758 mmHg 83%
    23:00 +27°C° 0 mm 4 m/S 759 mmHg 82%

    29 Januar, Mittwoch

    Zeit Temperatur Niederschläge Wind Luftdruck Luftfeuchtigkeit
    00:00 +27°C° 0 mm 4 m/S 758 mmHg 83%
    01:00 +26°C° 0 mm 3 m/S 758 mmHg 83%
    02:00 +26°C° 0 mm 3 m/S 757 mmHg 83%
    03:00 +26°C° 0.1 mm 3 m/S 757 mmHg 83%
    04:00 +26°C° 0.1 mm 3 m/S 757 mmHg 83%
    05:00 +27°C° 0.1 mm 4 m/S 757 mmHg 84%
    06:00 +27°C° 0.1 mm 4 m/S 758 mmHg 82%
    07:00 +28°C° 0.1 mm 4 m/S 759 mmHg 80%
    08:00 +28°C° 0.1 mm 4 m/S 759 mmHg 78%
    09:00 +29°C° 0 mm 4 m/S 759 mmHg 72%
    10:00 +30°C° 0 mm 4 m/S 759 mmHg 65%
    11:00 +32°C° 0 mm 4 m/S 759 mmHg 59%
    12:00 +32°C° 0 mm 4 m/S 759 mmHg 60%
    13:00 +32°C° 0 mm 4 m/S 758 mmHg 61%
    14:00 +32°C° 0 mm 4 m/S 758 mmHg 62%
    15:00 +30°C° 0 mm 4 m/S 758 mmHg 63%
    16:00 +30°C° 0 mm 4 m/S 757 mmHg 64%
    17:00 +30°C° 0 mm 4 m/S 757 mmHg 66%
    18:00 +29°C° 0 mm 4 m/S 758 mmHg 72%
    19:00 +27°C° 0 mm 4 m/S 758 mmHg 78%
    20:00 +26°C° 0 mm 3 m/S 758 mmHg 83%
    21:00 +26°C° 0.1 mm 4 m/S 759 mmHg 85%
    22:00 +26°C° 0.1 mm 4 m/S 759 mmHg 87%
    23:00 +26°C° 0.1 mm 4 m/S 759 mmHg 88%

    30 Januar, Donnerstag

    Zeit Temperatur Niederschläge Wind Luftdruck Luftfeuchtigkeit
    00:00 +26°C° 0 mm 4 m/S 759 mmHg 87%
    01:00 +26°C° 0 mm 3 m/S 758 mmHg 86%
    02:00 +26°C° 0 mm 3 m/S 758 mmHg 85%
    03:00 +26°C° 0 mm 3 m/S 758 mmHg 85%
    04:00 +26°C° 0 mm 3 m/S 758 mmHg 84%
    05:00 +26°C° 0 mm 4 m/S 758 mmHg 84%
    06:00 +27°C° 0.1 mm 4 m/S 759 mmHg 82%
    07:00 +27°C° 0.1 mm 4 m/S 759 mmHg 80%
    08:00 +28°C° 0.1 mm 4 m/S 760 mmHg 79%
    09:00 +29°C° 0.1 mm 4 m/S 760 mmHg 74%
    10:00 +29°C° 0.1 mm 4 m/S 760 mmHg 69%
    11:00 +30°C° 0.1 mm 5 m/S 760 mmHg 64%
    12:00 +32°C° 0.1 mm 5 m/S 759 mmHg 61%
    13:00 +32°C° 0.1 mm 5 m/S 759 mmHg 59%
    14:00 +33°C° 0.1 mm 5 m/S 758 mmHg 56%
    15:00 +32°C° 0.1 mm 5 m/S 758 mmHg 61%
    16:00 +30°C° 0.1 mm 5 m/S 758 mmHg 66%
    17:00 +29°C° 0.1 mm 4 m/S 757 mmHg 70%
    18:00 +28°C° 0 mm 4 m/S 758 mmHg 75%
    19:00 +27°C° 0 mm 4 m/S 759 mmHg 79%
    20:00 +26°C° 0 mm 3 m/S 759 mmHg 84%
    21:00 +26°C° 0 mm 3 m/S 759 mmHg 85%
    22:00 +26°C° 0 mm 3 m/S 759 mmHg 86%
    23:00 +26°C° 0 mm 3 m/S 760 mmHg 86%

    31 Januar, Freitag

    Zeit Temperatur Niederschläge Wind Luftdruck Luftfeuchtigkeit
    00:00 +26°C° 0 mm 3 m/S 759 mmHg 87%
    01:00 +25°C° 0 mm 3 m/S 759 mmHg 88%
    02:00 +25°C° 0 mm 3 m/S 758 mmHg 89%
    03:00 +26°C° 0.1 mm 3 m/S 758 mmHg 89%
    04:00 +26°C° 0.1 mm 3 m/S 758 mmHg 88%
    05:00 +26°C° 0.1 mm 3 m/S 758 mmHg 87%
    06:00 +27°C° 0.2 mm 4 m/S 759 mmHg 86%
    07:00 +27°C° 0.2 mm 4 m/S 759 mmHg 84%
    08:00 +28°C° 0.2 mm 4 m/S 760 mmHg 83%
    09:00 +29°C° 0.3 mm 4 m/S 760 mmHg 79%
    10:00 +29°C° 0.3 mm 4 m/S 760 mmHg 74%
    11:00 +30°C° 0.3 mm 4 m/S 760 mmHg 70%
    12:00 +30°C° 0.3 mm 4 m/S 760 mmHg 69%
    13:00 +32°C° 0.3 mm 4 m/S 759 mmHg 69%
    14:00 +32°C° 0.3 mm 5 m/S 759 mmHg 68%
    15:00 +30°C° 0.1 mm 5 m/S 758 mmHg 71%
    16:00 +29°C° 0.1 mm 5 m/S 758 mmHg 74%
    17:00 +29°C° 0.1 mm 5 m/S 758 mmHg 77%
    18:00 +28°C° 0.1 mm 5 m/S 758 mmHg 80%
    19:00 +27°C° 0.1 mm 4 m/S 759 mmHg 84%
    20:00 +26°C° 0.1 mm 4 m/S 759 mmHg 88%
    21:00 +26°C° 0.4 mm 4 m/S 760 mmHg 89%
    22:00 +26°C° 0.4 mm 5 m/S 760 mmHg 90%
    23:00 +26°C° 0.4 mm 5 m/S 760 mmHg 90%
    Mehr zeigen